Wind_Speed
11 11 11 12 13 13 14 15 16 17 17 18 19 20 20 21 22 23 24 24 25 25 26 27 27 27 28 28 28 28 28 29 29 31 33 33 34 35 37 38 39 41 43
13 13 14 15 15 16 17 18 18 19 20 21 22 22 23 24 25 26 26 27 27 27 28 29 29 30 30 30 30 30 30 31 31 32 33 35 35 36 37 38 39 41 43
15 16 16 17 17 18 20 21 21 22 23 24 24 25 26 27 27 28 28 29 29 30 30 31 32 32 32 32 32 32 32 33 33 33 34 35 36 37 37 37 39 40 42
17 18 18 19 20 21 22 23 24 25 26 27 27 27 28 29 30 30 30 31 32 32 33 33 33 33 33 33 34 34 34 34 35 35 35 36 37 38 38 38 38 39 41
20 21 21 22 23 24 25 26 27 28 29 30 30 31 31 31 32 32 33 33 34 34 35 34 34 34 35 35 35 35 35 35 36 36 36 37 38 39 39 39 38 39 40
22 23 24 25 26 27 28 29 30 31 32 32 33 33 34 34 34 35 36 36 36 37 37 36 36 36 36 37 37 37 37 37 38 38 37 37 38 39 39 39 38 38 39
24 25 26 27 28 29 30 31 32 34 35 35 35 36 36 37 37 38 39 39 38 39 39 39 38 38 38 38 38 38 38 39 39 39 38 39 39 39 39 39 38 38 38
26 27 28 29 30 32 33 33 35 37 37 38 39 39 39 39 40 41 42 41 41 41 41 41 41 40 40 40 40 40 40 40 41 40 39 39 39 39 39 38 38 38 38
29 30 31 32 34 35 36 37 38 39 40 41 41 41 42 42 44 45 45 44 43 43 44 44 44 43 43 43 42 41 41 41 41 41 40 39 39 39 39 38 38 38 37
31 33 34 36 37 38 39 41 41 42 43 44 45 45 46 46 47 48 49 48 47 47 46 47 46 45 45 45 44 43 42 42 42 42 41 40 39 39 39 38 38 38 37
34 35 37 38 40 40 42 43 45 46 47 48 48 48 49 50 49 50 51 52 51 50 49 49 49 48 47 47 46 45 43 43 42 42 41 40 39 38 38 38 37 37 36
37 38 39 41 42 44 45 46 47 49 50 51 52 52 53 53 53 53 54 55 55 54 52 52 51 50 50 49 47 46 46 44 43 42 41 40 39 39 39 38 37 36 36
39 41 42 44 45 47 48 49 51 52 53 54 55 55 55 55 56 56 57 58 58 57 56 55 53 52 52 51 49 48 47 46 44 42 41 40 40 40 39 38 37 36 35
42 43 45 46 47 49 51 52 53 54 56 57 57 58 58 58 58 59 60 60 60 60 59 58 56 55 54 53 51 50 49 47 45 43 41 41 40 40 39 38 37 37 36
44 45 47 48 49 51 52 54 55 57 58 59 60 61 61 61 61 62 63 62 63 63 62 61 59 57 56 55 53 52 50 48 46 43 42 41 40 40 39 38 37 37 35
45 47 49 50 52 53 55 56 58 60 61 63 64 65 65 65 65 65 66 66 66 66 65 63 62 60 58 56 54 52 51 48 46 44 42 41 40 39 38 38 37 36 35
47 49 51 52 54 56 57 59 60 61 63 65 67 68 69 70 70 70 70 70 69 68 67 65 62 60 58 56 54 52 50 47 45 43 41 40 39 39 38 37 37 36 35
50 52 53 55 57 59 60 62 63 65 65 66 67 69 70 70 70 70 70 69 68 67 66 63 61 59 56 54 51 49 48 45 43 42 40 39 39 38 37 36 36 35 34
53 55 56 58 59 61 63 64 65 66 67 67 67 66 66 66 65 64 64 63 62 60 59 56 54 52 50 48 47 46 44 42 40 39 38 38 38 37 36 35 34 34 34
55 57 58 59 61 62 63 63 64 63 63 62 61 61 60 59 58 57 56 55 53 51 50 47 45 43 42 41 41 41 40 37 36 36 37 37 36 35 34 34 33 33 33
57 58 59 60 61 61 61 60 60 59 58 56 55 54 54 53 51 49 48 46 44 42 39 37 36 35 34 34 34 34 34 33 34 34 35 35 34 34 33 33 32 33 33
57 57 58 58 57 57 56 56 55 54 52 51 49 47 45 44 42 40 39 38 36 34 31 29 28 28 27 27 28 29 29 29 30 31 31 31 31 32 32 31 31 32 32
55 55 55 54 54 53 52 51 49 47 45 43 40 38 37 35 33 31 29 27 24 23 21 20 20 21 22 23 24 25 25 26 27 27 28 28 29 29 29 29 29 30 30
52 51 50 49 48 46 45 43 40 38 37 35 33 32 30 27 24 23 21 18 16 15 14 15 17 18 19 20 21 22 22 23 24 25 26 26 27 27 28 28 28 27 27
47 46 45 44 43 41 39 36 34 33 32 30 28 25 23 20 18 17 15 12 11 9 10 12 14 15 16 18 19 20 21 22 23 23 24 24 25 25 26 26 26 26 26
43 42 41 39 37 35 33 31 29 28 27 25 22 19 18 17 15 14 11 10 9 8 9 10 12 13 15 16 17 18 19 20 21 21 22 22 23 23 24 24 24 24 25
Wind_Direction
255 259 263 267 270 275 280 284 287 289 292 295 297 298 299 300 301 302 303 305 306 306 306 307 307 306 305 304 302 299 297 295 294 292 289 286 283 279 274 269 265 261 259
259 263 265 269 272 277 281 284 286 289 290 292 294 295 296 297 298 299 301 303 304 305 306 307 306 305 304 304 302 300 298 297 295 293 291 289 287 283 278 273 269 265 261
260 264 267 271 275 278 281 283 286 288 290 291 293 294 295 296 296 298 299 301 302 303 304 305 305 305 304 304 302 301 299 298 296 295 293 292 290 286 282 278 274 270 265
263 267 270 273 276 279 281 284 286 288 289 290 292 293 294 295 296 297 298 300 301 302 303 303 304 304 303 303 303 301 300 299 298 297 295 293 290 288 284 280 276 273 269
268 271 273 276 278 280 282 284 286 289 290 291 291 292 293 294 295 296 298 300 301 302 302 302 302 302 303 303 302 301 301 300 299 298 297 294 291 288 285 282 278 275 272
274 275 276 278 280 282 284 286 288 289 290 291 292 292 293 294 294 296 298 299 300 301 301 302 301 301 301 301 301 300 300 300 300 299 298 295 292 288 285 283 279 276 273
277 278 280 281 283 284 286 287 288 289 290 290 292 293 294 295 295 296 297 298 298 299 300 300 300 300 300 300 299 299 299 299 300 299 297 295 292 289 285 283 280 277 273
280 281 282 284 285 285 286 287 288 289 290 291 292 293 294 295 295 296 295 295 296 297 298 298 299 299 299 299 298 298 298 298 298 298 297 294 292 288 285 283 281 277 273
282 283 284 286 286 286 287 288 289 289 290 291 292 292 293 294 295 294 294 294 295 296 296 296 296 296 297 297 297 297 296 296 297 297 296 294 291 288 285 282 280 277 273
282 283 284 285 285 286 287 287 288 289 290 290 290 290 291 292 293 293 293 293 294 294 294 294 294 294 295 295 296 295 295 295 295 295 294 293 290 287 285 282 279 276 272
282 283 283 284 284 285 286 287 288 288 288 288 289 289 290 291 290 291 291 291 292 292 292 293 293 293 293 293 294 294 294 293 293 293 292 292 289 287 285 282 279 276 272
284 284 284 284 285 286 286 286 287 287 287 287 288 288 288 289 289 289 289 290 290 290 291 291 291 290 290 290 291 292 292 292 291 290 290 289 287 286 284 282 279 276 272
284 285 285 285 286 287 287 286 286 286 287 287 287 287 287 288 288 288 288 288 288 288 288 288 288 288 288 288 288 289 289 289 289 288 287 286 285 284 282 281 278 275 272
286 286 287 287 287 287 287 288 288 287 287 287 287 287 287 287 286 286 286 286 286 286 286 286 285 285 285 285 286 286 286 286 286 285 283 283 282 282 281 279 277 275 272
289 289 289 289 289 289 289 289 288 288 288 288 288 287 287 286 286 285 284 284 284 284 284 283 283 283 282 282 282 282 282 282 283 281 281 280 280 280 280 278 276 274 273
291 291 291 291 290 290 290 289 289 289 289 288 288 287 287 286 285 284 283 283 282 282 281 281 281 280 280 279 278 277 278 278 278 278 277 277 278 278 278 277 276 274 272
292 292 292 292 291 291 290 290 289 289 288 288 288 287 287 286 285 284 283 282 282 281 280 280 278 278 277 275 274 274 274 273 273 274 274 274 276 276 275 275 274 273 271
295 294 294 293 293 292 292 291 291 290 289 288 287 287 286 286 285 284 283 282 281 280 279 278 276 275 274 272 270 270 270 269 269 269 270 272 274 274 274 273 272 271 270
296 296 296 295 295 294 294 293 293 292 291 290 289 288 288 287 287 286 285 284 282 280 278 276 274 273 271 269 267 266 265 265 266 266 267 270 272 272 272 271 270 270 269
298 298 298 297 297 297 297 296 296 295 294 294 293 292 291 289 288 287 286 285 283 281 278 275 271 270 268 266 265 263 260 261 263 264 267 269 270 270 270 270 269 269 269
300 300 300 300 300 300 299 299 298 297 297 297 296 295 294 293 291 289 287 286 283 280 276 272 269 267 264 262 260 258 257 259 261 264 266 267 268 269 269 269 269 269 269
302 302 302 302 302 302 302 301 301 301 300 299 299 298 297 296 295 294 291 287 282 277 273 269 266 263 261 259 256 257 258 259 262 263 264 265 267 269 269 269 270 270 270
304 304 304 304 305 305 305 305 304 304 304 303 303 302 301 301 299 298 296 290 284 275 269 262 260 259 257 255 256 258 259 259 261 262 264 266 268 271 270 269 269 270 270
305 306 306 307 307 308 309 309 309 310 310 309 308 307 307 306 304 302 300 293 285 275 264 255 254 254 256 256 258 259 258 259 263 265 266 268 269 270 270 269 269 269 269
307 307 308 308 309 309 310 312 313 314 314 314 314 313 314 313 310 310 309 300 288 274 261 256 254 256 257 259 261 261 262 264 268 268 268 269 269 269 270 269 268 268 269
307 308 309 310 311 312 312 314 315 316 318 319 319 319 319 319 316 312 308 301 287 275 272 264 260 259 261 263 263 265 267 270 270 270 270 270 269 270 270 269 269 269 269
Height
5848 5848 5848 5849 5849 5848 5848 5847 5846 5845 5844 5842 5841 5839 5838 5836 5834 5832 5830 5828 5826 5824 5821 5819 5816 5814 5811 5809 5806 5804 5802 5801 5799 5796 5793 5792 5791 5790 5790 5790 5790 5791 5792
5845 5845 5845 5845 5844 5843 5843 5842 5841 5840 5838 5837 5835 5834 5832 5830 5829 5826 5824 5822 5819 5817 5814 5812 5809 5806 5803 5801 5798 5796 5794 5792 5790 5787 5784 5781 5780 5779 5778 5777 5777 5778 5779
5841 5841 5840 5840 5839 5838 5837 5836 5835 5834 5832 5831 5829 5827 5826 5824 5822 5820 5817 5815 5812 5809 5807 5804 5801 5798 5795 5792 5789 5787 5784 5782 5779 5777 5774 5771 5769 5767 5766 5766 5765 5765 5766
5836 5836 5835 5834 5833 5832 5831 5829 5828 5827 5825 5824 5822 5820 5818 5816 5814 5812 5809 5807 5804 5801 5798 5796 5792 5789 5786 5783 5780 5777 5774 5772 5769 5766 5764 5761 5758 5756 5754 5754 5753 5752 5753
5830 5830 5829 5827 5826 5825 5824 5822 5821 5819 5817 5816 5814 5812 5810 5808 5806 5803 5801 5798 5795 5792 5789 5787 5783 5780 5777 5774 5771 5767 5764 5761 5758 5755 5753 5750 5747 5744 5742 5741 5741 5740 5740
5824 5823 5822 5821 5819 5818 5816 5814 5813 5811 5809 5807 5805 5803 5801 5799 5796 5794 5791 5789 5786 5783 5780 5777 5774 5771 5767 5764 5761 5757 5754 5751 5747 5744 5742 5739 5735 5732 5730 5729 5728 5728 5727
5818 5817 5815 5813 5812 5810 5808 5806 5804 5802 5800 5798 5796 5794 5792 5789 5787 5784 5781 5779 5776 5773 5770 5767 5764 5760 5757 5754 5750 5747 5743 5740 5737 5734 5731 5727 5724 5720 5718 5717 5716 5715 5715
5810 5809 5807 5805 5804 5802 5799 5797 5795 5792 5790 5788 5786 5784 5782 5779 5776 5773 5770 5768 5766 5762 5759 5756 5753 5749 5746 5743 5739 5736 5732 5728 5725 5722 5719 5716 5712 5709 5706 5705 5704 5703 5703
5802 5801 5799 5797 5794 5792 5790 5787 5785 5783 5781 5778 5776 5773 5771 5768 5765 5761 5758 5756 5753 5751 5747 5744 5740 5738 5734 5730 5727 5724 5721 5716 5713 5710 5707 5704 5700 5697 5695 5693 5692 5691 5691
5793 5791 5789 5787 5785 5782 5779 5777 5774 5772 5769 5767 5764 5762 5759 5756 5753 5749 5745 5743 5740 5738 5734 5731 5728 5724 5721 5717 5714 5711 5708 5705 5701 5698 5694 5691 5688 5685 5683 5681 5680 5678 5678
5784 5782 5779 5777 5774 5771 5769 5766 5763 5760 5758 5755 5752 5749 5746 5743 5740 5736 5732 5728 5726 5723 5720 5717 5714 5710 5707 5704 5701 5698 5695 5692 5688 5685 5682 5679 5676 5673 5671 5669 5668 5667 5667
5773 5771 5768 5766 5763 5760 5757 5754 5750 5747 5744 5741 5738 5735 5732 5728 5725 5721 5717 5713 5710 5707 5705 5702 5699 5696 5692 5689 5686 5684 5681 5678 5675 5673 5670 5667 5664 5661 5659 5657 5656 5655 5655
5762 5760 5757 5754 5750 5747 5744 5740 5737 5733 5730 5726 5723 5720 5716 5713 5709 5705 5701 5697 5693 5690 5688 5686 5683 5680 5676 5674 5672 5669 5666 5664 5661 5659 5657 5654 5651 5649 5647 5645 5644 5643 5643
5750 5747 5744 5741 5737 5734 5729 5726 5722 5718 5714 5710 5706 5703 5699 5696 5692 5688 5683 5679 5676 5672 5670 5668 5665 5663 5660 5658 5656 5653 5651 5649 5647 5645 5644 5642 5639 5637 5635 5633 5632 5631 5631
5738 5735 5731 5727 5723 5719 5715 5710 5706 5701 5696 5693 5688 5684 5680 5677 5673 5668 5664 5661 5657 5654 5650 5648 5647 5645 5643 5641 5639 5637 5635 5634 5632 5631 5630 5628 5626 5625 5623 5621 5620 5620 5620
5725 5721 5717 5713 5708 5704 5699 5695 5689 5684 5679 5673 5668 5664 5659 5656 5652 5648 5643 5640 5636 5632 5629 5628 5627 5625 5624 5622 5621 5620 5619 5618 5617 5616 5616 5615 5613 5612 5611 5609 5609 5608 5608
5712 5707 5703 5698 5693 5688 5683 5678 5673 5668 5661 5654 5648 5642 5637 5632 5628 5624 5620 5616 5613 5609 5607 5606 5605 5604 5603 5603 5602 5602 5602 5602 5601 5602 5602 5601 5600 5599 5598 5597 5597 5596 5596
5697 5692 5687 5681 5676 5670 5664 5658 5652 5647 5642 5636 5628 5621 5614 5609 5604 5600 5595 5591 5589 5587 5584 5583 5582 5582 5582 5583 5584 5584 5585 5586 5586 5587 5588 5588 5587 5587 5586 5586 5585 5584 5584
5681 5676 5670 5664 5658 5651 5644 5638 5631 5624 5618 5612 5606 5600 5592 5586 5581 5576 5571 5567 5565 5564 5562 5561 5561 5561 5562 5564 5565 5567 5569 5570 5571 5573 5574 5574 5574 5574 5574 5574 5573 5573 5573
5665 5658 5652 5645 5639 5631 5624 5617 5610 5603 5596 5589 5583 5577 5570 5565 5560 5556 5550 5546 5544 5543 5542 5542 5542 5544 5545 5547 5549 5551 5553 5556 5558 5560 5561 5562 5562 5562 5562 5562 5562 5562 5561
5648 5641 5634 5627 5619 5612 5604 5597 5590 5583 5576 5570 5564 5557 5550 5545 5541 5537 5532 5529 5527 5526 5526 5526 5528 5529 5531 5533 5536 5538 5541 5543 5546 5548 5549 5550 5550 5550 5550 5550 5550 5550 5550
5630 5623 5616 5609 5602 5594 5586 5579 5572 5565 5558 5552 5546 5541 5534 5528 5524 5520 5517 5514 5512 5512 5513 5514 5516 5518 5521 5523 5525 5528 5530 5533 5535 5537 5538 5538 5539 5539 5539 5539 5539 5539 5539
5614 5607 5600 5593 5586 5578 5571 5563 5556 5549 5543 5537 5531 5526 5522 5517 5512 5508 5505 5503 5502 5502 5503 5505 5508 5510 5513 5515 5517 5520 5522 5524 5526 5527 5528 5528 5529 5529 5529 5529 5529 5529 5529
5599 5592 5586 5579 5572 5565 5558 5551 5544 5538 5532 5526 5521 5516 5512 5508 5504 5501 5498 5496 5495 5496 5497 5500 5502 5505 5507 5509 5511 5513 5514 5516 5517 5518 5519 5519 5519 5519 5519 5519 5519 5519 5519
5586 5579 5573 5566 5560 5554 5548 5542 5536 5530 5524 5518 5514 5509 5505 5502 5499 5496 5494 5493 5492 5493 5494 5496 5498 5500 5502 5504 5505 5506 5507 5509 5509 5510 5510 5510 5510 5510 5510 5510 5510 5510 5510
5574 5568 5562 5556 5550 5545 5539 5534 5528 5523 5518 5513 5508 5505 5502 5499 5496 5494 5492 5491 5491 5491 5492 5494 5495 5496 5498 5499 5500 5500 5501 5501 5502 5502 5502 5502 5502 5502 5501 5501 5501 5501 5501